This demonstration page uses our WeatherBlox Daily Observations layout. Learn more.

Left ArrowRight Arrow

36.17497, -115.13722

Hourly Observations for August 29, 2020

Temp ( °F °C ) Dew Point ( °F °C ) Humidity (%) Winds ( mph kmh ) Pressure ( in mb ) Visibility ( mi km ) Precip ( " mm )
12:53 am 00:53 Clear 92 33.3 36 2.2 14 14 N N/A 29.75 1007 10 16 N/A
1:53 am 01:53 Clear 90 32.2 35 1.7 14 14 N 6 9 29.74 1007 10 16 N/A
2:53 am 02:53 Clear 89 31.7 34 1.1 14 14 VRB 5 7 29.75 1008 10 16 N/A
3:53 am 03:53 Clear 87 30.6 36 2.2 16 16 WNW 5 7 29.76 1008 10 16 N/A
4:53 am 04:53 Clear 85 29.4 37 2.8 18 18 NW 8 13 29.76 1008 10 16 N/A
5:53 am 05:53 Clear 85 29.4 38 3.3 19 19 NW 5 7 29.78 1008 10 16 N/A
6:53 am 06:53 Sunny 84 28.9 38 3.3 19 19 NNE 5 7 29.80 1009 10 16 N/A
7:53 am 07:53 Sunny 88 31.1 39 3.9 18 18 W 3 6 29.82 1010 10 16 N/A
8:53 am 08:53 Sunny 92 33.3 40 4.4 16 16 N N/A 29.82 1010 10 16 N/A
9:53 am 09:53 Sunny 96 35.6 38 3.3 13 13 E 6 9 29.83 1010 10 16 N/A
10:53 am 10:53 Sunny 98 36.7 41 5 14 14 SE 9 15 29.83 1010 10 16 N/A
11:53 am 11:53 Sunny 100 37.8 43 6.1 14 14 S 9 15 29.81 1010 10 16 N/A
12:53 pm 12:53 Sunny 103 39.4 38 3.3 11 11 SSE 8 13 29.79 1009 10 16 N/A
1:53 pm 13:53 Sunny 106 41.1 39 3.9 10 10 SE 14 22 29.76 1008 10 16 N/A
2:53 pm 14:53 Sunny 104 40 40 4.4 11 11 S 12 19 29.72 1007 10 16 N/A
3:53 pm 15:53 Sunny 105 40.6 35 1.7 9 9 WSW 10 17 29.71 1006 10 16 N/A
4:53 pm 16:53 Sunny 105 40.6 34 1.1 8 8 S 6 9 29.70 1006 10 16 N/A
5:53 pm 17:53 Sunny 104 40 33 0.6 8 8 WSW 18 30 29.70 1006 10 16 N/A
6:53 pm 18:53 Sunny 102 38.9 33 0.6 9 9 WSW 16 26 29.70 1006 10 16 N/A
7:53 pm 19:53 Clear 99 37.2 30 -1.1 9 9 WSW 10 17 29.71 1006 10 16 N/A
8:53 pm 20:53 Clear 97 36.1 28 -2.2 9 9 W 6 9 29.73 1007 10 16 N/A
9:53 pm 21:53 Clear 94 34.4 29 -1.7 10 10 S 5 7 29.74 1007 10 16 N/A
10:53 pm 22:53 Clear 92 33.3 28 -2.2 10 10 S 14 22 29.75 1007 10 16 N/A
11:53 pm 23:53 Clear 91 32.8 31 -0.6 12 12 SSW 13 20 29.76 1008 10 16 N/A

Powered by AerisWeather